COSMOS 249 DEB, 3911

Orbit data source: Space-Track

COSMOS 249 DEB, 3911 is space debris in LEO originally from a launch on Sun, 20 Oct 1968 UTC launched from the Tyuratam Missile And Space Complex (TTMTR). Debris objects in space refer to the collection of defunct objects orbiting the Earth. Examples of debris include non-operational satellites, rocket bodies, and fragments generated from explosions, collisions, or faulty payload assembly.

Loading next visibility...
Identifier
3911, 1968-091BP
Orbit
LEO
Country
Flag of CISCIS
Related business
Manufacturer
Unknown
Mission
Spacecraft
Bus & Motor
Unknown
Mass
Unknown
Launch date (UTC)
1968-10-20 (57 years ago)
Launch vehicle
Unknown
Launch site
Tyuratam Missile And Space Complex (TTMTR)
Object type
Payload
Rocket body
Debris
Shape & HBR
Unknown shape, 0.1 m
Radar Cross Section
Small (<0.1 m²)

Expand to show TLE details & history
Last TLE update: 15 hours ago

TLE from 15 hours ago
0 COSMOS 249 DEB
1 03911U 68091BP  25286.53107702  .00003445  00000-0  92860-3 0  9990
2 03911  62.9230  25.9946 0792840  59.0709 308.5803 13.40755315634221
Epoch: 2025-10-13T12:44Z
TLE epoch observation values (Epoch: 2025-10-13T12:44:45.054Z)
Latitude
-0.00006°
Longitude
172.47432°
Altitude
769.037 km
Speed
7.637 km/s
True Right ascension
01h 43m 58s
True Declination
0° 00' 00"
Sunlit
Object was in full shadow at epoch
Visualization orbit readout
Latitude
Unknown
Longitude
Unknown
Altitude
Unknown
Speed
Unknown
Apparent Right ascension
Unknown
Apparent Declination
Unknown
Sunlit
N/A
Visualization observer readout
Local Sidereal Time
22:26:58
Azimuth
Unknown
Elevation
Unknown
Doppler factor
Unknown
Orbital elements
Apogee altitude
1,698.668 km
Perigee altitude
512.027 km
Semi-major axis
7,483.485 km
Eccentricity
0.07928
Inclination
62.923°
RAAN
25.9946°
Arg. of periapsis
59.0709°
True anomaly
301.03354°
Mean anomaly
308.5803°
Eccentric anomaly
304.85249°
Mean motion
3.35264 °/min
Orbital period
107.38 mins
BSTAR
0.0009286
Loading maneuver chart data...
Computing Atmospheric mass density...

Documentation

Showing up to 5 results
|